Location: Bothwell
(42.3833°S, 147.0000°E)
Time: 11:56:29
(UTC+11:00)

NOAA 18 - Pass Details

Date: 07 October 2023
Orbit: 839 x 858 km, 98.9° (Epoch: 06 December)

Event Time Altitude Azimuth Distance (km) Brightness Sun altitude
Rises 00:55:44 0° 174° (S) 3,468 9.2 -42.4°
Reaches altitude 10° 00:58:16 10° 181° (S) 2,522 8.3 -42.5°
Enters shadow 01:00:00 19° 191° (S) 1,936 7.5 -42.5°
